Powrót do katalogu

KUIPER-00160

AktywnyŁącznośćLEO
NORAD 67765·PAYLOAD·🇺🇸 United States

Wystrzelony Feb 12, 2026 z Guiana Space Centre

Loading…

Następne Przeloty (najbliższe 24 godziny)

TLE

ŚwieżeSource: CelesTrak SupGP

Epoka: Sep 14, 2026, 16:36 UTC

1 67765C 26030B   26257.69206019 -.00666600  00000+0 -76617-1 0  2577
2 67765  51.8989  29.9879 0011537 349.3551 328.2957 14.85947529    15

Śledź KUIPER-00160 w czasie rzeczywistym z AllMySat

Download on the App Store